Regional Weather Roundup
Issued by NWS Little Rock, AR

Home | Current Version | Previous Version | Text Only | Print | Product List | Glossary On
Versions: 1 2 3 4 5 6 7 8 9 10 11 12 13 14 15 16 17 18 19 20 21 22 23 24 25 26 27 28 29 30 31 32 33 34 35 36 37 38 39 40 41 42 43 44 45 46 47 48 49 50
000
ASUS44 KLZK 271405
RWRLZK

WEATHER ROUNDUP FOR ARKANSAS
NATIONAL WEATHER SERVICE LITTLE ROCK AR
800 AM CST FRI FEB 27 2015

NOTE: "FAIR" INDICATES FEW OR NO CLOUDS BELOW 12,000 FEET WITH NO
SIGNIFICANT WEATHER AND/OR OBSTRUCTIONS TO VISIBILITY.

ARZ001-003-010-029-271500-
NORTHWEST ARKANSAS

CITY           SKY/WX    TMP DP  RH WIND       PRES   REMARKS
FAYETTEVILLE   MOSUNNY   12   3  67 E14G20    30.50F WCI  -3
FORT SMITH     SUNNY     21   4  47 NE16      30.56R WCI   7
HARRISON       SUNNY     11   3  70 E10       30.53S WCI  -3
BENTONVILLE    SUNNY     12   1  62 E9        30.51F WCI   0
ROGERS         SUNNY     11   2  67 E10G20    30.50S WCI  -3
SILOAM SPGS    SUNNY     12   0  57 E8        30.54R WCI   1
HIGHFILL       SUNNY     13   2  61 NE9       30.51R WCI   1
SPRINGDALE     SUNNY     12   3  67 E9G18     30.52S WCI   0
$$

ARZ004-005-016-271500-
NORTH CENTRAL ARKANSAS

CITY           SKY/WX    TMP DP  RH WIND       PRES   REMARKS
BATESVILLE     SUNNY     16   3  57 N12G17    30.60R WCI   3
FLIPPIN        SUNNY     12   0  57 NE7       30.58F WCI   2
MTN HOME       SUNNY     11   2  67 NE7       30.57R WCI   0
$$

ARZ040-041-271500-
WEST CENTRAL ARKANSAS

CITY           SKY/WX    TMP DP  RH WIND       PRES   REMARKS
MENA           SUNNY     23  12  63 E12       30.50R WCI  12
MOUNT IDA      SUNNY     22   8  55 VRB5      30.50R WCI  16
$$

ARZ009-017-025-026-028-271500-
NORTHEAST ARKANSAS

CITY           SKY/WX    TMP DP  RH WIND       PRES   REMARKS
CORNING        FAIR      14   1  57 N10       30.65R WCI   1
JONESBORO      SUNNY     16   6  65 N13       30.62R WCI   2
NEWPORT        SUNNY     18   6  59 N20       30.63R WCI   2
WALNUT RIDGE   SUNNY     16   1  53 N13       30.65R WCI   2
BLYTHEVILLE    SUNNY     16   8  71 N17       30.62R WCI   0
$$

ARZ022-023-033-042-044-271500-
CENTRAL ARKANSAS

CITY           SKY/WX    TMP DP  RH WIND       PRES   REMARKS
LITTLE ROCK    MOSUNNY   22   8  55 N13       30.60R WCI  10
N LITTLE ROCK  MOSUNNY   19  12  72 NE14G23   30.60R WCI   6
JACKSONVILLE   SUNNY     20   8  59 NE13      30.58R WCI   8
SEARCY         SUNNY     19   8  62 N15       30.61R WCI   5
HOT SPRINGS    SUNNY     21   9  59 NE10      30.54R WCI  10
RUSSELLVILLE   SUNNY     20   6  55 NE6       30.58R WCI  12
CLINTON        FAIR      18   5  57 NE6G17    30.61R WCI   9
$$

ARZ036-271500-
EAST ARKANSAS

CITY           SKY/WX    TMP DP  RH WIND       PRES   REMARKS
WEST MEMPHIS   SUNNY     21  13  71 NE16      30.58R WCI   7
$$

ARZ050-053-066-070-073-271500-
SOUTHWEST ARKANSAS

CITY           SKY/WX    TMP DP  RH WIND       PRES   REMARKS
ARKADELPHIA    FAIR      24  13  63 N13       30.57R WCI  12
CAMDEN         SUNNY     25  14  63 MISG      30.55R
TEXARKANA      SUNNY     25  13  60 NE14G21   30.52R WCI  13
EL DORADO      SUNNY     25  17  72 N9        30.52R WCI  15
DE QUEEN       MOSUNNY   25  12  58 E8        30.52R WCI  16
$$

ARZ056-057-069-271500-
SOUTHEAST ARKANSAS

CITY           SKY/WX    TMP DP  RH WIND       PRES   REMARKS
PINE BLUFF     CLOUDY    23  15  71 N15       30.56R WCI  10
STUTTGART      CLOUDY    23  14  68 N17       30.56R WCI   9
MONTICELLO     CLOUDY    26  17  68 NE10      30.52R WCI  16

$$




USA.gov is the U.S. government's official web portal to all federal, state and local government web resources and services.